Date String (YYYY-MM-DD hh:mm:ss) UTC,Instrument flags,absolute air pressure of the measurement (hPa),sample flow rate (lpm),inlet stack bypass flow (lpm),air temperature of the measurement (°C),ambient temperature measured by the external sensor (°C),aerosol sample conditioner tube jacket temperature (°C),OPC LED temperature (°C),internal box temperature (°C),relative humidity of the measurement (%),span deviation,mass concentration of particles derived from Lorenz-Mie calculation of OPC scattering (μg/m³),mass concentration of particles derived from Lorenz-Mie calculation of OPC scattering (μg/m³),mass concentration of particles derived from Lorenz-Mie calculation of OPC scattering (μg/m³)
DateTimeUTC,F1_M11,P_M11,Q1_M11,Q2_M11,T1_M11,T2_M11,T3_M11,T4_M11,T5_M11,U1_M11,ZSPAN_M11,X0_M11,X2_M11,X1_M11
2024-06-18 10:00:00,SystemResetWarning,0818.3,5.00,000.00,030.1,028.9,000.0,038.8,031.7,016.8,0000.0,0044.47,0007.82,0003.63
2024-06-18 10:01:00,SystemResetWarning,0818.3,5.00,000.00,030.1,029.0,000.0,038.8,031.8,016.7,0000.0,0044.29,0007.76,0003.61
2024-06-18 10:02:00,SystemResetWarning,0818.3,5.00,000.00,030.2,029.2,000.0,038.7,031.9,016.7,0000.0,0043.54,0007.86,0003.61
2024-06-18 10:03:00,SystemResetWarning,0818.3,4.98,000.00,030.2,029.3,000.0,038.7,031.9,016.7,0000.0,0044.53,0007.81,0003.59
2024-06-18 10:04:00,SystemResetWarning,0818.3,5.01,000.00,030.2,029.4,000.0,038.7,032.0,016.5,0000.0,0045.24,0007.74,0003.58
2024-06-18 10:05:00,SystemResetWarning,0818.3,5.01,000.00,030.3,029.5,000.0,038.7,032.0,016.4,0000.0,0044.74,0007.82,0003.56
2024-06-18 10:06:00,SystemResetWarning,0818.3,5.01,000.00,030.3,029.6,000.0,038.7,032.0,016.3,0000.0,0045.03,0007.76,0003.54
2024-06-18 10:07:00,SystemResetWarning,0818.3,5.00,000.00,030.3,029.6,000.0,038.8,032.1,016.3,0000.0,0045.87,0007.73,0003.52
2024-06-18 10:08:00,SystemResetWarning,0818.4,5.00,000.00,030.4,029.7,000.0,038.8,032.1,016.1,0000.0,0044.80,0007.75,0003.50
2024-06-18 10:09:00,SystemResetWarning,0818.4,4.99,000.00,030.4,029.7,000.0,038.8,032.1,016.3,0000.0,0045.79,0007.74,0003.48
2024-06-18 10:10:00,SystemResetWarning,0818.4,5.00,000.00,030.4,029.8,000.0,038.8,032.2,016.3,0000.0,0047.88,0007.74,0003.46
2024-06-18 10:11:00,SystemResetWarning,0818.4,4.99,000.00,030.4,029.8,000.0,038.8,032.2,016.3,0000.0,0050.55,0007.77,0003.46
2024-06-18 10:12:00,SystemResetWarning,0818.4,4.99,000.00,030.5,029.8,000.0,038.8,032.2,016.4,0000.0,0050.53,0007.85,0003.46
2024-06-18 10:13:00,SystemResetWarning,0818.4,5.01,000.00,030.5,029.9,000.0,038.9,032.2,016.4,0000.0,0051.05,0007.81,0003.45
2024-06-18 10:14:00,SystemResetWarning,0818.5,5.01,000.00,030.5,029.9,000.0,038.9,032.3,016.4,0000.0,0050.05,0007.81,0003.45
2024-06-18 10:15:00,SystemResetWarning,0818.5,5.00,000.00,030.5,029.9,000.0,038.9,032.3,016.4,0000.0,0049.28,0007.88,0003.45
2024-06-18 10:16:00,SystemResetWarning,0818.6,5.00,000.00,030.6,030.0,000.0,038.9,032.3,016.3,0000.0,0049.54,0007.83,0003.45
2024-06-18 10:17:00,SystemResetWarning,0818.6,5.00,000.00,030.6,030.0,000.0,038.9,032.4,016.3,0000.0,0051.60,0007.82,0003.45
2024-06-18 10:18:00,SystemResetWarning,0818.6,5.00,000.00,030.6,030.0,000.0,039.0,032.4,016.3,0000.0,0053.40,0007.93,0003.45
2024-06-18 10:19:00,SystemResetWarning,0818.6,5.00,000.00,030.6,030.0,000.0,039.0,032.4,016.4,0000.0,0055.35,0007.85,0003.45
2024-06-18 10:20:00,SystemResetWarning,0818.6,4.99,000.00,030.6,030.0,000.0,039.0,032.4,016.5,0000.0,0054.86,0007.84,0003.46
2024-06-18 10:21:00,SystemResetWarning,0818.7,5.00,000.00,030.6,030.0,000.0,039.0,032.4,016.4,0000.0,0054.46,0007.77,0003.46
2024-06-18 10:22:00,SystemResetWarning,0818.8,5.00,000.00,030.7,030.0,000.0,039.0,032.4,016.3,0000.0,0052.33,0007.68,0003.45
2024-06-18 10:23:00,SystemResetWarning,0818.8,5.00,000.00,030.7,030.0,000.0,039.1,032.5,016.3,0000.0,0052.31,0007.68,0003.43
2024-06-18 10:24:00,SystemResetWarning,0818.8,5.01,000.00,030.7,030.0,000.0,039.1,032.5,016.3,0000.0,0053.41,0007.70,0003.44
2024-06-18 10:25:00,SystemResetWarning,0818.8,5.00,000.00,030.7,030.1,000.0,039.1,032.5,016.2,0000.0,0054.26,0007.79,0003.43
2024-06-18 10:26:00,SystemResetWarning,0818.8,5.00,000.00,030.7,030.0,000.0,039.1,032.5,016.1,0000.0,0054.99,0007.76,0003.42
2024-06-18 10:27:00,SystemResetWarning,0819.0,5.00,000.00,030.7,030.0,000.0,039.1,032.5,016.1,0000.0,0055.12,0007.77,0003.40
2024-06-18 10:28:00,SystemResetWarning,0819.5,5.00,000.00,030.7,030.0,000.0,039.2,032.5,016.0,0000.0,0054.93,0007.87,0003.40
2024-06-18 10:29:00,SystemResetWarning,0819.3,5.00,000.00,030.8,030.0,000.0,039.2,032.5,015.9,0000.0,0054.02,0007.87,0003.38
2024-06-18 10:30:00,SystemResetWarning,0819.1,5.00,000.00,030.8,030.0,000.0,039.2,032.5,015.9,0000.0,0053.57,0007.90,0003.37
2024-06-18 10:31:00,SystemResetWarning,0819.0,5.00,000.00,030.8,030.0,000.0,039.2,032.5,015.9,0000.0,0054.18,0007.91,0003.35
2024-06-18 10:32:00,SystemResetWarning,0819.1,5.00,000.00,030.8,030.0,000.0,039.2,032.5,015.8,0000.0,0055.75,0008.08,0003.34
2024-06-18 10:33:00,SystemResetWarning,0819.2,4.99,000.00,030.8,030.0,000.0,039.2,032.5,015.8,0000.0,0059.27,0008.21,0003.32
2024-06-18 10:34:00,SystemResetWarning,0819.2,5.00,000.00,030.8,030.0,000.0,039.3,032.5,015.8,0000.0,0063.97,0008.30,0003.31
2024-06-18 10:35:00,SystemResetWarning,0819.3,5.00,000.00,030.8,030.0,000.0,039.3,032.5,015.6,0000.0,0065.67,0008.39,0003.29
2024-06-18 10:36:00,SystemResetWarning,0819.3,5.00,000.00,030.8,030.0,000.0,039.3,032.5,015.6,0000.0,0067.81,0008.43,0003.28
2024-06-18 10:37:00,SystemResetWarning,0819.3,5.00,000.00,030.8,030.0,000.0,039.3,032.5,015.7,0000.0,0069.32,0008.59,0003.26
2024-06-18 10:38:00,SystemResetWarning,0819.4,5.00,000.00,030.8,029.9,000.0,039.3,032.5,015.9,0000.0,0069.15,0008.65,0003.24
2024-06-18 10:39:00,SystemResetWarning,0819.4,5.00,000.00,030.8,029.9,000.0,039.3,032.5,015.5,0000.0,0067.63,0008.59,0003.22
2024-06-18 10:40:00,SystemResetWarning,0819.5,5.00,000.00,030.7,029.9,000.0,039.3,032.5,015.6,0000.0,0067.33,0008.64,0003.22
2024-06-18 10:41:00,SystemResetWarning,0819.5,5.00,000.00,030.7,029.9,000.0,039.3,032.4,015.7,0000.0,0066.86,0008.63,0003.22
2024-06-18 10:42:00,SystemResetWarning,0819.7,5.00,000.00,030.7,029.9,000.0,039.3,032.4,015.6,0000.0,0067.58,0008.82,0003.22
2024-06-18 10:43:00,SystemResetWarning,0820.1,5.00,000.00,030.7,029.9,000.0,039.3,032.4,015.5,0000.0,0065.55,0008.86,0003.20
2024-06-18 10:44:00,SystemResetWarning,0819.7,4.99,000.00,030.7,029.8,000.0,039.3,032.4,015.5,0000.0,0064.22,0008.94,0003.19
2024-06-18 10:45:00,SystemResetWarning,0819.8,5.00,000.00,030.7,029.8,000.0,039.3,032.4,015.3,0000.0,0060.38,0009.00,0003.18
2024-06-18 10:46:00,SystemResetWarning,0819.9,5.00,000.00,030.7,029.8,000.0,039.3,032.4,015.4,0000.0,0060.15,0009.11,0003.18
2024-06-18 10:47:00,SystemResetWarning,0820.0,5.01,000.00,030.7,029.8,000.0,039.3,032.4,015.4,0000.0,0059.95,0009.04,0003.18
2024-06-18 10:48:00,SystemResetWarning,0819.9,5.00,000.00,030.7,029.8,000.0,039.3,032.4,015.4,0000.0,0061.85,0008.98,0003.18
2024-06-18 10:49:00,SystemResetWarning,0820.1,5.00,000.00,030.6,029.8,000.0,039.3,032.4,015.4,0000.0,0064.38,0009.14,0003.19
2024-06-18 10:50:00,SystemResetWarning,0820.0,5.01,000.00,030.6,029.8,000.0,039.3,032.4,015.4,0000.0,0066.76,0009.30,0003.20
2024-06-18 10:51:00,SystemResetWarning,0820.0,5.00,000.00,030.6,029.7,000.0,039.3,032.3,015.5,0000.0,0070.02,0009.36,0003.19
2024-06-18 10:52:00,SystemResetWarning,0820.1,5.00,000.00,030.6,029.7,000.0,039.3,032.3,015.7,0000.0,0070.39,0009.52,0003.19
2024-06-18 10:53:00,SystemResetWarning,0820.1,5.00,000.00,030.6,029.7,000.0,039.3,032.3,015.7,0000.0,0071.40,0009.59,0003.20
2024-06-18 10:54:00,SystemResetWarning,0820.3,5.00,000.00,030.6,029.7,000.0,039.3,032.3,015.7,0000.0,0074.86,0009.62,0003.20
2024-06-18 10:55:00,SystemResetWarning,0820.3,5.00,000.00,030.5,029.7,000.0,039.3,032.3,015.8,0000.0,0077.55,0009.62,0003.19
2024-06-18 10:56:00,SystemResetWarning,0820.6,5.00,000.00,030.5,029.6,000.0,039.3,032.2,015.7,0000.0,0080.32,0009.66,0003.19
2024-06-18 10:57:00,SystemResetWarning,0820.9,5.00,000.00,030.5,029.6,000.0,039.2,032.1,015.7,0000.0,0081.49,0009.65,0003.18
2024-06-18 10:58:00,SystemResetWarning,0820.6,5.00,000.00,030.5,029.5,000.0,039.2,032.1,015.8,0000.0,0081.96,0009.88,0003.17
2024-06-18 10:59:00,SystemResetWarning,0820.7,5.01,000.00,030.4,029.5,000.0,039.2,032.1,015.6,0000.0,0081.49,0010.14,0003.17
